Buffalo, SD

5:12 PM MST on February 07, 2016 (GMT -0700)
Buffalo

Weather History for K2WX - May, 2014

Change the Weather History Date:

Monday, May 12, 2014

  Actual Average Record
Temperature  
Mean Temperature 43 °F 52 °F  
Max Temperature 53 °F 65 °F 84 °F (2001)
Min Temperature 33 °F 40 °F 27 °F (2000)
Degree Days  
Heating Degree Days 22 13  
Month to date heating degree days 222 174  
Since 1 July heating degree days 8083 7627  
Cooling Degree Days 0 0  
Month to date cooling degree days 0 0  
Year to date cooling degree days 0 0  
Moisture  
Dew Point 24 °F    
Average Humidity 52    
Maximum Humidity 75    
Minimum Humidity 28    
Precipitation  
Precipitation 0.00 in 0.06 in 0.44 in (2005)
Month to date precipitation 0.63 0.64  
Year to date precipitation 3.31 3.53  
Sea Level Pressure  
Sea Level Pressure 30.21 in    
Wind  
Wind Speed 21 mph (NNW)    
Max Wind Speed 37 mph    
Max Gust Speed 44 mph    
T = Trace of Precipitation, MM = Missing Value Source: NWS Daily Summary

Daily Weather History Graph

Daily Weather History Graph

Search for Another Location

Airport or City:

Trip Planner

Search our weather history database for the weather conditions in past years. The results will help you decide how hot, cold, wet, or windy it might be!

Date:

Astronomy

May. 12, 2014 Rise Set
Actual Time 5:26 AM MDT 8:14 PM MDT
Civil Twilight 4:52 AM MDT 8:49 PM MDT
Nautical Twilight 4:09 AM MDT 9:32 PM MDT
Astronomical Twilight 3:18 AM MDT 10:24 PM MDT
Moon 6:09 PM MDT (5/12) 4:15 AM MDT (5/12)
Length of Visible Light 15h 56m
Length of Day
14h 48m
Waxing Gibbous, 95% of the Moon is Illuminated
May 12
Waxing Gibbous
May 14
Full
May 21
Last Quarter
May 28
New
Jun 5
First Quarter

Hourly Weather History & Observations

Time (MDT) Temp. Windchill Dew Point Humidity Pressure Visibility Wind Dir Wind Speed Gust Speed Precip Events Conditions
12:56 AM 34.0 °F 25.5 °F 25.0 °F 70% 30.18 in - NNW 11.5 mph - N/A   Unknown
1:56 AM 34.0 °F 26.0 °F 25.0 °F 70% 30.17 in - NW 10.4 mph - N/A   Unknown
2:56 AM 35.1 °F 26.4 °F 25.0 °F 67% 30.18 in - NNW 12.7 mph - N/A   Unknown
3:56 AM 35.1 °F 25.2 °F 26.1 °F 70% 30.15 in - NNW 16.1 mph - N/A   Unknown
4:56 AM 35.1 °F 25.2 °F 25.0 °F 67% 30.18 in - NNW 16.1 mph - N/A   Unknown
5:56 AM 35.1 °F 23.8 °F 25.0 °F 67% 30.17 in - NNW 20.7 mph - N/A   Unknown
6:56 AM 36.0 °F 25.3 °F 25.0 °F 64% 30.20 in - NNW 19.6 mph - N/A   Unknown
8:56 AM 42.1 °F 32.8 °F 27.0 °F 55% 30.22 in - NNW 21.9 mph 29.9 mph N/A   Unknown
9:56 AM 46.0 °F 36.9 °F 25.0 °F 44% 30.20 in - NNW 28.8 mph 36.8 mph N/A   Unknown
10:56 AM 46.9 °F - 24.1 °F 41% 30.21 in - NNW 29.9 mph 39.1 mph N/A   Unknown
11:56 AM 48.9 °F - 21.9 °F 35% 30.21 in - North 32.2 mph 40.3 mph N/A   Unknown
12:56 PM 50.0 °F - 21.9 °F 33% 30.23 in - North 28.8 mph 35.7 mph N/A   Unknown
1:56 PM 50.0 °F - 21.9 °F 33% 30.22 in - NNW 29.9 mph 41.4 mph N/A   Unknown
2:56 PM 52.0 °F - 21.9 °F 31% 30.21 in - NNW 29.9 mph 36.8 mph N/A   Unknown
3:56 PM 52.0 °F - 19.9 °F 28% 30.20 in - NNW 32.2 mph 39.1 mph N/A   Unknown
4:56 PM 51.1 °F - 21.9 °F 32% 30.21 in - NNW 29.9 mph 36.8 mph N/A   Unknown
5:56 PM 50.0 °F - 23.0 °F 35% 30.22 in - NNW 23.0 mph 35.7 mph N/A   Unknown
6:56 PM 50.0 °F - 24.1 °F 36% 30.22 in - NNW 25.3 mph 28.8 mph N/A   Unknown
7:56 PM 48.0 °F - 24.1 °F 39% 30.24 in - NNW 18.4 mph - N/A   Unknown
8:56 PM 42.1 °F 35.7 °F 25.0 °F 51% 30.26 in - NW 11.5 mph - N/A   Unknown
9:56 PM 37.0 °F 29.8 °F 25.0 °F 62% 30.26 in - WNW 10.4 mph - N/A   Unknown
10:56 PM 35.1 °F 26.9 °F 26.1 °F 70% 30.26 in - WNW 11.5 mph - N/A   Unknown
11:56 PM 34.0 °F 25.5 °F 26.1 °F 73% 30.26 in - WNW 11.5 mph - N/A   Unknown